• Join FlightAware (Why Join?)
  • Login
  • US Flag GB Flag 
05:24 EDT


 

Airport Tracker/Info


-or-


 

Live Flight TrackerFlight Track Log ✈ UAL335 ✈ 03-May-2013 ✈ KFLL - KIAH

Flight Track Log - Related Links

Times and Time Zones

All times are in EDT time to prevent confusion due to time zone crossing. See the UAL335 flight status page for this flight to view local times or setup timezone preferences in your user account.

Time Position Orientation Groundspeed Altitude Reporting Facility
EDT Latitude Longitude Course Direction KTS MPH feet Rate Location/Type
13:04 26.0742 -80.1761 318° Northwest 167 192 1,000  Level Miami Center
13:05 26.0769 -80.2361 273° West 218 251 3,000 2,160 Climbing Miami Center
13:06 26.1322 -80.2769 326° Northwest 271 312 5,700 2,520 Climbing Miami Center
13:07 26.1944 -80.3044 338° Northwest 282 325 7,900 1,620 Climbing Miami Center
13:08 26.2469 -80.3731 310° West 282 325 9,000 480 Climbing Miami Center
13:09 26.3639 -80.6973 318° Northwest  Level FlightAware Approximate
13:09 26.2783 -80.4528 294° West 280 322 9,000  Level Miami Center
13:10 26.3164 -80.5189 303° West 280 322 9,000 1,080 Level Miami Center
13:11 26.3581 -80.6058 298° West 275 316 11,200 1,800 Climbing Miami Center
13:12 26.3978 -80.6858 299° West 308 354 12,700 1,800 Climbing Miami Center
13:13 26.4769 -80.7719 316° Northwest 343 395 14,900 2,100 Climbing Miami Center
13:14 26.5369 -80.8714 304° West 364 419 17,000 1,980 Climbing Miami Center
13:15 26.5947 -80.9733 302° West 389 448 18,900 1,680 Climbing Miami Center
13:16 26.6464 -81.0681 301° West 400 460 20,400 1,560 Climbing Miami Center
13:17 26.7078 -81.1772 302° West 407 468 22,100 1,500 Climbing Miami Center
13:18 26.7650 -81.2864 300° West 412 474 23,500 1,380 Climbing Miami Center
13:19 26.8406 -81.4103 304° West 423 487 24,900 840 Climbing Miami Center
13:20 26.8992 -81.5336 298° West 438 504 25,200 720 Climbing Miami Center
13:21 26.9561 -81.6475 299° West 461 531 26,400 1,200 Climbing Miami Center
13:22 27.0186 -81.7736 299° West 468 539 27,600 1,500 Climbing Miami Center
13:23 27.0850 -81.9072 299° West 463 533 29,500 1,440 Climbing Miami Center
13:24 27.1456 -82.0264 300° West 457 526 30,500 960 Climbing Miami Center
13:25 27.2036 -82.1550 297° West 452 520 31,500 1,440 Climbing Miami Center
13:26 27.2342 -82.2872 285° West 444 511 33,400 1,620 Climbing Miami Center
13:27 27.2592 -82.3981 284° West 427 491 34,800 1,020 Climbing Miami Center
13:28 27.2933 -82.5375 285° West 420 483 35,500 600 Climbing Miami Center
13:29 27.3194 -82.6650 283° West 420 483 36,000 240 Climbing Miami Center
13:30 27.3497 -82.7925 285° West 420 483 36,000  Level Miami Center
13:31 27.3797 -82.9250 284° West 431 496 36,000 -60 Level Miami Center
13:32 27.4078 -83.0550 284° West 437 503 35,900  Descending Miami Center
13:33 27.4375 -83.1875 284° West 437 503 36,000  Climbing Miami Center
13:34 27.4650 -83.3200 283° West 437 503 36,000  Level Miami Center
13:35 27.4925 -83.4478 284° West 437 503 36,000  Level Miami Center
13:36 27.5222 -83.5736 285° West 432 497 36,000  Level Miami Center
13:37 27.5517 -83.7017 285° West 432 497 36,000  Level Miami Center
13:38 27.5789 -83.8297 284° West 426 490 36,000 -60 Level Miami Center
13:39 27.6019 -83.9550 282° West 420 483 35,900  Descending Miami Center
13:40 27.6289 -84.0808 284° West 412 474 36,000  Climbing Miami Center
13:41 27.6642 -84.2072 288° West 417 480 36,000 -60 Level Miami Center
13:42 27.6869 -84.3328 282° West 417 480 35,900  Descending Miami Center
13:43 27.7117 -84.4561 283° West 423 487 36,000  Climbing Miami Center
13:44 27.7383 -84.5822 283° West 418 481 35,900  Descending Miami Center
13:45 27.7650 -84.7081 283° West 418 481 36,000  Climbing Miami Center
13:46 27.7914 -84.8342 283° West 418 481 36,000  Level Miami Center
13:49 27.8282 -85.0233 282° West  Level FlightAware Approximate
13:49 27.8783 -85.2356 282° West 402 463 36,000  Level Jacksonville Center
13:50 27.9156 -85.3631 288° West 423 487 36,000  Level Jacksonville Center
13:51 27.9528 -85.4886 289° West 436 502 36,000  Level Jacksonville Center
13:52 27.9919 -85.6142 289° West 436 502 36,000  Level Jacksonville Center
13:53 28.0286 -85.7397 288° West 441 507 36,000  Level Jacksonville Center
13:54 28.0658 -85.8583 290° West 425 489 36,000  Level Jacksonville Center
13:55 28.1025 -85.9769 289° West 411 473 36,000  Level Jacksonville Center
13:56 28.1392 -86.1028 288° West 411 473 36,000  Level Jacksonville Center
13:57 28.1756 -86.2264 288° West 404 465 36,000  Level Jacksonville Center
13:58 28.2100 -86.3431 289° West 415 478 36,000 -60 Level Jacksonville Center
13:59 28.2483 -86.4714 289° West 415 478 35,900  Descending Jacksonville Center
14:00 28.2806 -86.5858 288° West 405 466 36,000  Climbing Jacksonville Center
14:01 28.3186 -86.7122 289° West 413 475 36,000  Level Jacksonville Center
14:02 28.3567 -86.8361 289° West 413 475 36,000 -60 Level Jacksonville Center
14:03 28.3903 -86.9625 287° West 413 475 35,900  Descending Jacksonville Center
14:04 28.4258 -87.0842 288° West 413 475 36,000  Climbing Jacksonville Center
14:05 28.4633 -87.2111 289° West 413 475 36,000 -60 Level Jacksonville Center
14:06 28.4986 -87.3375 288° West 418 481 35,900  Descending Jacksonville Center
14:07 28.5381 -87.4669 289° West 418 481 36,000  Climbing Jacksonville Center
14:09 28.6017 -87.6906 288° West 421 484 36,000  Level Houston Center
14:10 28.6367 -87.8181 287° West 423 487 36,000  Level Houston Center
14:11 28.6719 -87.9439 288° West 418 481 36,000  Level Houston Center
14:12 28.7072 -88.0689 288° West 417 480 36,000  Level Houston Center
14:13 28.7464 -88.2089 288° West 418 481 36,000 -60 Level Houston Center
14:14 28.7814 -88.3328 288° West 413 475 35,900  Descending Houston Center
14:15 28.8172 -88.4581 288° West 415 478 36,000  Climbing Houston Center
14:16 28.8517 -88.5819 288° West 412 474 36,000  Level Houston Center
14:17 28.8847 -88.7067 287° West 411 473 36,000  Level Houston Center
14:18 28.9114 -88.8328 284° West 411 473 36,000  Level Houston Center
14:19 28.9436 -88.9853 284° West 411 473 36,000  Level Houston Center
14:20 28.9706 -89.1153 283° West 420 483 36,000  Level Houston Center
14:21 28.9986 -89.2433 284° West 418 481 36,000 -60 Level Houston Center
14:22 29.0242 -89.3692 283° West 411 473 35,900  Descending Houston Center
14:23 29.0503 -89.4944 283° West 407 468 36,000  Climbing Houston Center
14:24 29.0756 -89.6208 283° West 409 471 35,900  Descending Houston Center
14:25 29.1081 -89.7731 284° West 410 472 36,000  Climbing Houston Center
14:26 29.1328 -89.8994 283° West 407 468 36,000  Level Houston Center
14:27 29.1592 -90.0233 284° West 400 460 36,000  Level Houston Center
14:28 29.1822 -90.1506 282° West 405 466 36,000  Level Houston Center
14:29 29.1972 -90.2756 278° West 399 459 36,000 -60 Level Houston Center
14:30 29.2117 -90.4003 278° West 396 456 35,900 -60 Descending Houston Center
14:31 29.2308 -90.5517 278° West 399 459 35,900  Level Houston Center
14:32 29.2467 -90.6758 278° West 396 456 36,000  Climbing Houston Center
14:34 29.2622 -90.7989 278° West 393 452 36,000 -60 Level Houston Center
14:35 29.2764 -90.9222 278° West 391 450 35,900 -60 Descending Houston Center
14:36 29.2917 -91.0436 278° West 388 447 35,900  Level Houston Center
14:37 29.3067 -91.1681 278° West 391 450 36,000  Climbing Houston Center
14:38 29.3244 -91.3175 278° West 393 452 35,900  Descending Houston Center
14:39 29.3400 -91.4417 278° West 394 453 36,000  Climbing Houston Center
14:40 29.3539 -91.5644 277° West 392 451 35,900 -60 Descending Houston Center
14:41 29.3692 -91.6875 278° West 390 449 35,900  Level Houston Center
14:42 29.3861 -91.8297 278° West 391 450 35,900  Level Houston Center
14:43 29.4003 -91.9522 278° West 389 448 36,000  Climbing Houston Center
14:44 29.4139 -92.0736 277° West 386 444 35,900 -60 Descending Houston Center
14:45 29.4275 -92.1953 277° West 385 443 35,900  Level Houston Center
14:46 29.4408 -92.3158 277° West 382 440 35,900  Level Houston Center
14:47 29.4550 -92.4367 278° West 381 438 36,000  Climbing Houston Center
14:48 29.4619 -92.5817 273° West 380 437 36,000  Level Houston Center
14:49 29.4681 -92.7019 273° West 379 436 36,000 -240 Level Houston Center
14:50 29.4742 -92.8217 273° West 377 434 35,600 -720 Descending Houston Center
14:51 29.4794 -92.9408 273° West 375 432 34,600 -1,020 Descending Houston Center
14:52 29.4836 -93.0631 272° West 380 437 33,600 -1,260 Descending Houston Center
14:53 29.4897 -93.1850 273° West 382 440 32,100 -2,280 Descending Houston Center
14:54 29.4956 -93.3278 273° West 375 432 29,000 -2,520 Descending Houston Center
14:55 29.4997 -93.4444 272° West 368 423 26,900 -2,100 Descending Houston Center
14:56 29.5042 -93.5564 273° West 356 410 24,700 -2,160 Descending Houston Center
14:57 29.5086 -93.6636 273° West 340 391 22,500 -2,040 Descending Houston Center
14:58 29.5122 -93.7706 272° West 334 384 20,500 -2,040 Descending Houston Center
14:59 29.5156 -93.8753 272° West 328 377 18,300 -2,280 Descending Houston Center
15:00 29.5183 -93.9386 273° West 322 371 17,100 -2,160 Descending Houston Center
15:00 29.5192 -93.9867 271° West 319 367 16,200 -1,920 Descending Houston Center
15:01 29.5242 -94.0950 273° West 311 358 14,100 -1,560 Descending Houston Center
15:02 29.5269 -94.1786 272° West 295 339 12,900 -540 Descending Houston Center
15:04 29.5306 -94.2714 273° West 292 336 13,000  Climbing Houston Center
15:05 29.5486 -94.3800 281° West 289 333 13,000 -60 Level Houston Center
15:05 29.5839 -94.4636 296° West 290 334 12,900 -780 Descending Houston Center
15:06 29.6142 -94.5367 296° West 258 297 11,600 -1,560 Descending Houston Center
15:08 29.6469 -94.6144 296° West 257 296 9,800 -1,500 Descending Houston Center
15:09 29.6908 -94.6761 309° West 256 295 8,600 -1,260 Descending Houston Center
15:10 29.7572 -94.7294 325° Northwest 246 283 7,100 -780 Descending Houston Center
15:11 29.8025 -94.7656 325° Northwest 237 273 7,100 -540 Level Houston Center
15:12 29.8536 -94.8169 319° Northwest 228 262 6,100 -1,020 Descending Houston Center
15:13 29.8947 -94.8744 310° West 228 262 5,100 -540 Descending Houston Center
15:14 29.9372 -94.9244 314° West 221 254 5,100 -60 Level Houston Center
15:15 29.9850 -94.9836 313° West 231 266 5,000 -420 Descending Houston Center
15:16 29.9936 -95.0525 278° West 215 247 4,300 -660 Descending Houston Center
15:16 29.9942 -95.0653 273° West 217 250 4,200 -600 Descending Houston Center
15:17 29.9936 -95.1203 269° West 209 241 3,700 -780 Descending Houston Center
15:17 29.9936 -95.1319 270° West 210 242 3,400 -1,200 Descending Houston Center
15:18 29.9936 -95.1878 270° West 213 245 2,500 -1,080 Descending Houston Center
15:18 29.9933 -95.1994 268° West 212 244 2,300 -1,020 Descending Houston Center
15:19 29.9928 -95.2481 269° West 154 177 1,500 -1,140 Descending Houston Center